Torna al catalogo

STARLINK-32346

AttivoComunicazioniVLEO
NORAD 61849·PAYLOAD·🇺🇸 United States

Lanciato Nov 7, 2024 da Cape Canaveral Space Force Station

Loading…

Prossimi Passaggi (prossime 24 ore)

TLE

AggiornatoSource: CelesTrak SupGP

Epoca: Sep 14, 2026, 22:20 UTC

1 61849C 24202E   26257.93104167  .00025240  00000+0  91433-3 0  2573
2 61849  42.9994 238.2070 0001367 263.1807 228.9131 15.27561506    18

Traccia STARLINK-32346 in tempo reale con AllMySat

Download on the App Store